owner,sensor,date,latitude,longitude,vertical_datum,wind_speed,wind_to_direction,wind_speed_of_gust,qcFlag 
NDBC,ioos:station:NOAA.NDBC:SANF1:1,2017-04-01T00:50:00Z,24.4560,-81.8770,45.4,6.7,180.0,7.2,'1111122,1111122,1111122' 
NDBC,ioos:station:NOAA.NDBC:SANF1:1,2017-04-01T01:50:00Z,24.4560,-81.8770,45.4,6.2,180.0,7.2,'1111122,1111122,1111122' 
NDBC,ioos:station:NOAA.NDBC:SANF1:1,2017-04-01T02:50:00Z,24.4560,-81.8770,45.4,6.2,190.0,7.2,'1111122,1111122,1111122' 
NDBC,ioos:station:NOAA.NDBC:SANF1:1,2017-04-01T03:50:00Z,24.4560,-81.8770,45.4,5.1,200.0,6.2,'1111122,1111122,1111122' 
NDBC,ioos:station:NOAA.NDBC:SANF1:1,2017-04-01T04:50:00Z,24.4560,-81.8770,45.4,6.2,190.0,6.7,'1111122,1111122,1111122' 
NDBC,ioos:station:NOAA.NDBC:SANF1:1,2017-04-01T05:50:00Z,24.4560,-81.8770,45.4,9.8,190.0,10.3,'1111122,1111122,1111122' 
NDBC,ioos:station:NOAA.NDBC:SANF1:1,2017-04-01T06:50:00Z,24.4560,-81.8770,45.4,7.2,210.0,9.8,'1111122,1111122,1111122' 
NDBC,ioos:station:NOAA.NDBC:SANF1:1,2017-04-01T07:50:00Z,24.4560,-81.8770,45.4,3.1,230.0,4.1,'1111122,1111122,1111122' 
NDBC,ioos:station:NOAA.NDBC:SANF1:1,2017-04-01T08:50:00Z,24.4560,-81.8770,45.4,2.6,200.0,3.1,'1111122,1111122,1111122' 
NDBC,ioos:station:NOAA.NDBC:SANF1:1,2017-04-01T09:50:00Z,24.4560,-81.8770,45.4,3.6,190.0,4.1,'1111122,1111122,1111122' 
NDBC,ioos:station:NOAA.NDBC:SANF1:1,2017-04-01T10:50:00Z,24.4560,-81.8770,45.4,4.1,190.0,4.6,'1111122,1111122,1111122' 
NDBC,ioos:station:NOAA.NDBC:SANF1:1,2017-04-01T11:50:00Z,24.4560,-81.8770,45.4,4.6,180.0,5.1,'1111122,1111122,1111122' 
NDBC,ioos:station:NOAA.NDBC:SANF1:1,2017-04-01T12:50:00Z,24.4560,-81.8770,45.4,4.6,190.0,5.1,'1111122,1111122,1111122' 
NDBC,ioos:station:NOAA.NDBC:SANF1:1,2017-04-01T14:50:00Z,24.4560,-81.8770,45.4,3.6,190.0,4.1,'1111122,1111122,1111122' 
NDBC,ioos:station:NOAA.NDBC:SANF1:1,2017-04-01T15:50:00Z,24.4560,-81.8770,45.4,3.6,190.0,4.1,'1111122,1111122,1111122' 
NDBC,ioos:station:NOAA.NDBC:SANF1:1,2017-04-01T16:50:00Z,24.4560,-81.8770,45.4,3.1,180.0,3.6,'1111122,1111122,1111122' 
NDBC,ioos:station:NOAA.NDBC:SANF1:1,2017-04-01T17:50:00Z,24.4560,-81.8770,45.4,2.1,160.0,2.6,'1111122,1111122,1111122' 
NDBC,ioos:station:NOAA.NDBC:SANF1:1,2017-04-01T18:50:00Z,24.4560,-81.8770,45.4,2.6,150.0,2.6,'1111122,1111122,1111122' 
NDBC,ioos:station:NOAA.NDBC:SANF1:1,2017-04-01T19:50:00Z,24.4560,-81.8770,45.4,2.6,150.0,3.1,'1111122,1111122,1111122' 
NDBC,ioos:station:NOAA.NDBC:SANF1:1,2017-04-01T20:50:00Z,24.4560,-81.8770,45.4,2.1,150.0,2.6,'1111122,1111122,1111122' 
NDBC,ioos:station:NOAA.NDBC:SANF1:1,2017-04-01T21:50:00Z,24.4560,-81.8770,45.4,2.6,130.0,3.1,'1111122,1111122,1111122' 
NDBC,ioos:station:NOAA.NDBC:SANF1:1,2017-04-01T23:50:00Z,24.4560,-81.8770,45.4,6.7,140.0,7.2,'1111122,1111122,1111122' 
NDBC,ioos:station:NOAA.NDBC:SANF1:1,2017-04-02T00:50:00Z,24.4560,-81.8770,45.4,7.2,150.0,8.2,'1111122,1111122,1111122' 
NDBC,ioos:station:NOAA.NDBC:SANF1:1,2017-04-02T02:50:00Z,24.4560,-81.8770,45.4,5.7,200.0,7.2,'1111122,1111122,1111122' 
NDBC,ioos:station:NOAA.NDBC:SANF1:1,2017-04-02T04:50:00Z,24.4560,-81.8770,45.4,3.6,180.0,4.1,'1111122,1111122,1111122' 
NDBC,ioos:station:NOAA.NDBC:SANF1:1,2017-04-02T05:50:00Z,24.4560,-81.8770,45.4,5.7,190.0,6.7,'1111122,1111122,1111122' 
NDBC,ioos:station:NOAA.NDBC:SANF1:1,2017-04-02T06:50:00Z,24.4560,-81.8770,45.4,4.6,200.0,5.7,'1111122,1111122,1111122' 
NDBC,ioos:station:NOAA.NDBC:SANF1:1,2017-04-02T07:50:00Z,24.4560,-81.8770,45.4,3.6,220.0,4.6,'1111122,1111122,1111122' 
NDBC,ioos:station:NOAA.NDBC:SANF1:1,2017-04-02T08:50:00Z,24.4560,-81.8770,45.4,0.0,-9999.0,1.0,'1114422,1111122,1111122' 
NDBC,ioos:station:NOAA.NDBC:SANF1:1,2017-04-02T09:50:00Z,24.4560,-81.8770,45.4,0.5,320.0,1.0,'1111122,1111122,1111122' 
NDBC,ioos:station:NOAA.NDBC:SANF1:1,2017-04-02T10:50:00Z,24.4560,-81.8770,45.4,3.1,120.0,3.6,'1111122,1111122,1111122' 
NDBC,ioos:station:NOAA.NDBC:SANF1:1,2017-04-02T11:50:00Z,24.4560,-81.8770,45.4,2.1,120.0,2.6,'1111122,1111122,1111122' 
NDBC,ioos:station:NOAA.NDBC:SANF1:1,2017-04-02T12:50:00Z,24.4560,-81.8770,45.4,0.5,30.0,1.5,'1111122,1111122,1111122' 
NDBC,ioos:station:NOAA.NDBC:SANF1:1,2017-04-02T13:50:00Z,24.4560,-81.8770,45.4,3.1,100.0,3.6,'1111122,1111122,1111122' 
NDBC,ioos:station:NOAA.NDBC:SANF1:1,2017-04-02T14:50:00Z,24.4560,-81.8770,45.4,3.1,110.0,3.1,'1111122,1111122,1111122' 
NDBC,ioos:station:NOAA.NDBC:SANF1:1,2017-04-02T15:50:00Z,24.4560,-81.8770,45.4,5.7,140.0,6.2,'1111122,1111122,1111122' 
NDBC,ioos:station:NOAA.NDBC:SANF1:1,2017-04-02T16:50:00Z,24.4560,-81.8770,45.4,6.2,140.0,7.2,'1111122,1111122,1111122' 
NDBC,ioos:station:NOAA.NDBC:SANF1:1,2017-04-02T17:50:00Z,24.4560,-81.8770,45.4,6.7,150.0,7.2,'1111122,1111122,1111122' 
NDBC,ioos:station:NOAA.NDBC:SANF1:1,2017-04-02T18:50:00Z,24.4560,-81.8770,45.4,6.2,140.0,6.7,'1111122,1111122,1111122' 
NDBC,ioos:station:NOAA.NDBC:SANF1:1,2017-04-02T19:50:00Z,24.4560,-81.8770,45.4,6.7,130.0,7.2,'1111122,1111122,1111122' 
NDBC,ioos:station:NOAA.NDBC:SANF1:1,2017-04-02T20:50:00Z,24.4560,-81.8770,45.4,7.2,130.0,7.7,'1111122,1111122,1111122' 
NDBC,ioos:station:NOAA.NDBC:SANF1:1,2017-04-02T21:50:00Z,24.4560,-81.8770,45.4,7.2,120.0,7.7,'1111122,1111122,1111122' 
NDBC,ioos:station:NOAA.NDBC:SANF1:1,2017-04-02T22:50:00Z,24.4560,-81.8770,45.4,7.7,110.0,8.8,'1111122,1111122,1111122' 
NDBC,ioos:station:NOAA.NDBC:SANF1:1,2017-04-02T23:50:00Z,24.4560,-81.8770,45.4,8.8,110.0,9.8,'1111122,1111122,1111122' 
NDBC,ioos:station:NOAA.NDBC:SANF1:1,2017-04-03T00:50:00Z,24.4560,-81.8770,45.4,8.2,110.0,9.3,'1111122,1111122,1111122' 
NDBC,ioos:station:NOAA.NDBC:SANF1:1,2017-04-03T02:50:00Z,24.4560,-81.8770,45.4,8.8,130.0,10.3,'1111122,1111122,1111122' 
NDBC,ioos:station:NOAA.NDBC:SANF1:1,2017-04-03T03:50:00Z,24.4560,-81.8770,45.4,8.8,140.0,9.8,'1111122,1111122,1111122' 
NDBC,ioos:station:NOAA.NDBC:SANF1:1,2017-04-03T04:50:00Z,24.4560,-81.8770,45.4,8.8,140.0,9.8,'1111122,1111122,1111122' 
NDBC,ioos:station:NOAA.NDBC:SANF1:1,2017-04-03T05:50:00Z,24.4560,-81.8770,45.4,9.8,140.0,11.3,'1111122,1111122,1111122' 
NDBC,ioos:station:NOAA.NDBC:SANF1:1,2017-04-03T06:50:00Z,24.4560,-81.8770,45.4,9.3,140.0,10.3,'1111122,1111122,1111122' 
NDBC,ioos:station:NOAA.NDBC:SANF1:1,2017-04-03T07:50:00Z,24.4560,-81.8770,45.4,8.8,150.0,9.8,'1111122,1111122,1111122' 
NDBC,ioos:station:NOAA.NDBC:SANF1:1,2017-04-03T09:50:00Z,24.4560,-81.8770,45.4,8.2,160.0,9.3,'1111122,1111122,1111122' 
NDBC,ioos:station:NOAA.NDBC:SANF1:1,2017-04-03T10:50:00Z,24.4560,-81.8770,45.4,8.2,160.0,9.3,'1111122,1111122,1111122' 
NDBC,ioos:station:NOAA.NDBC:SANF1:1,2017-04-03T11:50:00Z,24.4560,-81.8770,45.4,8.8,160.0,9.8,'1111122,1111122,1111122' 
NDBC,ioos:station:NOAA.NDBC:SANF1:1,2017-04-03T12:50:00Z,24.4560,-81.8770,45.4,10.3,160.0,11.8,'1111122,1111122,1111122' 
NDBC,ioos:station:NOAA.NDBC:SANF1:1,2017-04-03T13:50:00Z,24.4560,-81.8770,45.4,9.8,160.0,11.3,'1111122,1111122,1111122' 
NDBC,ioos:station:NOAA.NDBC:SANF1:1,2017-04-03T14:50:00Z,24.4560,-81.8770,45.4,10.3,160.0,12.4,'1111122,1111122,1111122' 
NDBC,ioos:station:NOAA.NDBC:SANF1:1,2017-04-03T15:50:00Z,24.4560,-81.8770,45.4,10.3,160.0,12.4,'1111122,1111122,1111122' 
NDBC,ioos:station:NOAA.NDBC:SANF1:1,2017-04-03T17:50:00Z,24.4560,-81.8770,45.4,10.3,150.0,11.8,'1111122,1111122,1111122' 
NDBC,ioos:station:NOAA.NDBC:SANF1:1,2017-04-03T18:50:00Z,24.4560,-81.8770,45.4,10.3,150.0,11.8,'1111122,1111122,1111122' 
NDBC,ioos:station:NOAA.NDBC:SANF1:1,2017-04-03T20:50:00Z,24.4560,-81.8770,45.4,11.3,140.0,12.4,'1111122,1111122,1111122' 
NDBC,ioos:station:NOAA.NDBC:SANF1:1,2017-04-03T22:50:00Z,24.4560,-81.8770,45.4,7.7,130.0,8.8,'1111122,1111122,1111122' 
NDBC,ioos:station:NOAA.NDBC:SANF1:1,2017-04-04T00:50:00Z,24.4560,-81.8770,45.4,8.8,140.0,9.8,'1111122,1111122,1111122' 
NDBC,ioos:station:NOAA.NDBC:SANF1:1,2017-04-04T02:50:00Z,24.4560,-81.8770,45.4,9.3,150.0,11.3,'1111122,1111122,1111122' 
NDBC,ioos:station:NOAA.NDBC:SANF1:1,2017-04-04T03:50:00Z,24.4560,-81.8770,45.4,10.3,150.0,12.4,'1111122,1111122,1111122' 
NDBC,ioos:station:NOAA.NDBC:SANF1:1,2017-04-04T04:50:00Z,24.4560,-81.8770,45.4,11.3,150.0,13.4,'1111122,1111122,1111122' 
NDBC,ioos:station:NOAA.NDBC:SANF1:1,2017-04-04T05:50:00Z,24.4560,-81.8770,45.4,10.8,150.0,12.4,'1111122,1111122,1111122' 
NDBC,ioos:station:NOAA.NDBC:SANF1:1,2017-04-04T06:50:00Z,24.4560,-81.8770,45.4,8.2,160.0,9.8,'1111122,1111122,1111122' 
NDBC,ioos:station:NOAA.NDBC:SANF1:1,2017-04-04T07:50:00Z,24.4560,-81.8770,45.4,8.8,190.0,10.8,'1111122,1111122,1111122' 
NDBC,ioos:station:NOAA.NDBC:SANF1:1,2017-04-04T08:50:00Z,24.4560,-81.8770,45.4,9.8,180.0,10.3,'1111122,1111122,1111122' 
NDBC,ioos:station:NOAA.NDBC:SANF1:1,2017-04-04T09:50:00Z,24.4560,-81.8770,45.4,7.2,180.0,8.2,'1111122,1111122,1111122' 
NDBC,ioos:station:NOAA.NDBC:SANF1:1,2017-04-04T10:50:00Z,24.4560,-81.8770,45.4,6.2,180.0,6.7,'1111122,1111122,1111122' 
NDBC,ioos:station:NOAA.NDBC:SANF1:1,2017-04-04T11:50:00Z,24.4560,-81.8770,45.4,6.2,170.0,6.7,'1111122,1111122,1111122' 
NDBC,ioos:station:NOAA.NDBC:SANF1:1,2017-04-04T12:50:00Z,24.4560,-81.8770,45.4,6.7,170.0,7.7,'1111122,1111122,1111122' 
NDBC,ioos:station:NOAA.NDBC:SANF1:1,2017-04-04T13:50:00Z,24.4560,-81.8770,45.4,7.7,170.0,8.8,'1111122,1111122,1111122' 
NDBC,ioos:station:NOAA.NDBC:SANF1:1,2017-04-04T14:50:00Z,24.4560,-81.8770,45.4,7.7,180.0,8.8,'1111122,1111122,1111122' 
NDBC,ioos:station:NOAA.NDBC:SANF1:1,2017-04-04T15:50:00Z,24.4560,-81.8770,45.4,8.2,180.0,8.8,'1111122,1111122,1111122' 
NDBC,ioos:station:NOAA.NDBC:SANF1:1,2017-04-04T16:50:00Z,24.4560,-81.8770,45.4,7.7,180.0,8.2,'1111122,1111122,1111122' 
NDBC,ioos:station:NOAA.NDBC:SANF1:1,2017-04-04T17:50:00Z,24.4560,-81.8770,45.4,6.2,170.0,7.2,'1111122,1111122,1111122' 
NDBC,ioos:station:NOAA.NDBC:SANF1:1,2017-04-04T19:50:00Z,24.4560,-81.8770,45.4,5.1,140.0,5.7,'1111122,1111122,1111122' 
NDBC,ioos:station:NOAA.NDBC:SANF1:1,2017-04-04T20:50:00Z,24.4560,-81.8770,45.4,4.6,110.0,5.1,'1111122,1111122,1111122' 
NDBC,ioos:station:NOAA.NDBC:SANF1:1,2017-04-04T21:50:00Z,24.4560,-81.8770,45.4,4.6,90.0,5.1,'1111122,1111122,1111122' 
NDBC,ioos:station:NOAA.NDBC:SANF1:1,2017-04-06T14:50:00Z,24.4560,-81.8770,45.4,5.1,260.0,5.7,'1111122,1111122,1111122' 
NDBC,ioos:station:NOAA.NDBC:SANF1:1,2017-04-06T16:50:00Z,24.4560,-81.8770,45.4,6.2,230.0,7.7,'1111122,1111122,1111122' 
NDBC,ioos:station:NOAA.NDBC:SANF1:1,2017-04-06T18:50:00Z,24.4560,-81.8770,45.4,7.2,280.0,8.2,'1111122,1111122,1111122' 
NDBC,ioos:station:NOAA.NDBC:SANF1:1,2017-04-06T20:50:00Z,24.4560,-81.8770,45.4,7.2,270.0,7.7,'1111122,1111122,1111122' 
NDBC,ioos:station:NOAA.NDBC:SANF1:1,2017-04-06T21:50:00Z,24.4560,-81.8770,45.4,7.2,350.0,8.2,'1111122,1111122,1111122' 
NDBC,ioos:station:NOAA.NDBC:SANF1:1,2017-04-06T22:50:00Z,24.4560,-81.8770,45.4,7.7,360.0,8.8,'1111122,1111122,1111122' 
NDBC,ioos:station:NOAA.NDBC:SANF1:1,2017-04-06T23:50:00Z,24.4560,-81.8770,45.4,9.3,350.0,10.3,'1111122,1111122,1111122' 
NDBC,ioos:station:NOAA.NDBC:SANF1:1,2017-04-07T00:50:00Z,24.4560,-81.8770,45.4,8.2,360.0,9.3,'1111122,1111122,1111122' 
NDBC,ioos:station:NOAA.NDBC:SANF1:1,2017-04-07T01:50:00Z,24.4560,-81.8770,45.4,8.2,360.0,9.3,'1111122,1111122,1111122' 
NDBC,ioos:station:NOAA.NDBC:SANF1:1,2017-04-07T03:50:00Z,24.4560,-81.8770,45.4,9.3,350.0,10.8,'1111122,1111122,1111122' 
NDBC,ioos:station:NOAA.NDBC:SANF1:1,2017-04-07T04:50:00Z,24.4560,-81.8770,45.4,8.2,340.0,9.3,'1111122,1111122,1111122' 
NDBC,ioos:station:NOAA.NDBC:SANF1:1,2017-04-07T06:50:00Z,24.4560,-81.8770,45.4,8.8,340.0,9.8,'1111122,1111122,1111122' 
NDBC,ioos:station:NOAA.NDBC:SANF1:1,2017-04-07T07:50:00Z,24.4560,-81.8770,45.4,9.8,350.0,11.8,'1111122,1111122,1111122' 
NDBC,ioos:station:NOAA.NDBC:SANF1:1,2017-04-07T08:50:00Z,24.4560,-81.8770,45.4,11.3,350.0,13.4,'1111122,1111122,1111122' 
NDBC,ioos:station:NOAA.NDBC:SANF1:1,2017-04-07T09:50:00Z,24.4560,-81.8770,45.4,11.8,360.0,13.4,'1111122,1111122,1111122' 
NDBC,ioos:station:NOAA.NDBC:SANF1:1,2017-04-07T10:50:00Z,24.4560,-81.8770,45.4,10.3,360.0,11.8,'1111122,1111122,1111122' 
NDBC,ioos:station:NOAA.NDBC:SANF1:1,2017-04-07T11:50:00Z,24.4560,-81.8770,45.4,9.8,360.0,11.3,'1111122,1111122,1111122' 
NDBC,ioos:station:NOAA.NDBC:SANF1:1,2017-04-07T12:50:00Z,24.4560,-81.8770,45.4,10.3,10.0,12.4,'1111122,1111122,1111122' 
NDBC,ioos:station:NOAA.NDBC:SANF1:1,2017-04-07T14:50:00Z,24.4560,-81.8770,45.4,7.7,360.0,9.8,'1111122,1111122,1111122' 
NDBC,ioos:station:NOAA.NDBC:SANF1:1,2017-04-07T15:50:00Z,24.4560,-81.8770,45.4,7.2,360.0,8.2,'1111122,1111122,1111122' 
NDBC,ioos:station:NOAA.NDBC:SANF1:1,2017-04-07T17:50:00Z,24.4560,-81.8770,45.4,7.2,30.0,8.8,'1111122,1111122,1111122' 
NDBC,ioos:station:NOAA.NDBC:SANF1:1,2017-04-07T18:50:00Z,24.4560,-81.8770,45.4,6.7,20.0,8.2,'1111122,1111122,1111122' 
NDBC,ioos:station:NOAA.NDBC:SANF1:1,2017-04-07T19:50:00Z,24.4560,-81.8770,45.4,6.2,20.0,7.7,'1111122,1111122,1111122' 
NDBC,ioos:station:NOAA.NDBC:SANF1:1,2017-04-07T20:50:00Z,24.4560,-81.8770,45.4,6.7,10.0,9.3,'1111122,1111122,1111122' 
NDBC,ioos:station:NOAA.NDBC:SANF1:1,2017-04-07T21:50:00Z,24.4560,-81.8770,45.4,5.1,360.0,7.7,'1111122,1111122,1111122' 
NDBC,ioos:station:NOAA.NDBC:SANF1:1,2017-04-07T22:50:00Z,24.4560,-81.8770,45.4,5.7,350.0,7.7,'1111122,1111122,1111122' 
NDBC,ioos:station:NOAA.NDBC:SANF1:1,2017-04-08T00:50:00Z,24.4560,-81.8770,45.4,7.2,350.0,9.3,'1111122,1111122,1111122' 
NDBC,ioos:station:NOAA.NDBC:SANF1:1,2017-04-08T02:50:00Z,24.4560,-81.8770,45.4,8.2,350.0,11.8,'1111122,1111122,1111122' 
NDBC,ioos:station:NOAA.NDBC:SANF1:1,2017-04-08T04:50:00Z,24.4560,-81.8770,45.4,8.8,350.0,10.3,'1111122,1111122,1111122' 
NDBC,ioos:station:NOAA.NDBC:SANF1:1,2017-04-08T05:50:00Z,24.4560,-81.8770,45.4,8.2,360.0,10.8,'1111122,1111122,1111122' 
NDBC,ioos:station:NOAA.NDBC:SANF1:1,2017-04-08T07:50:00Z,24.4560,-81.8770,45.4,9.3,10.0,11.3,'1111122,1111122,1111122' 
NDBC,ioos:station:NOAA.NDBC:SANF1:1,2017-04-08T09:50:00Z,24.4560,-81.8770,45.4,7.7,10.0,9.8,'1111122,1111122,1111122' 
NDBC,ioos:station:NOAA.NDBC:SANF1:1,2017-04-08T10:50:00Z,24.4560,-81.8770,45.4,9.3,10.0,11.8,'1111122,1111122,1111122' 
NDBC,ioos:station:NOAA.NDBC:SANF1:1,2017-04-08T11:50:00Z,24.4560,-81.8770,45.4,7.2,20.0,9.8,'1111122,1111122,1111122' 
NDBC,ioos:station:NOAA.NDBC:SANF1:1,2017-04-08T13:50:00Z,24.4560,-81.8770,45.4,6.7,30.0,8.2,'1111122,1111122,1111122' 
NDBC,ioos:station:NOAA.NDBC:SANF1:1,2017-04-08T14:50:00Z,24.4560,-81.8770,45.4,6.7,30.0,8.2,'1111122,1111122,1111122' 
NDBC,ioos:station:NOAA.NDBC:SANF1:1,2017-04-08T15:50:00Z,24.4560,-81.8770,45.4,5.7,30.0,7.7,'1111122,1111122,1111122' 
NDBC,ioos:station:NOAA.NDBC:SANF1:1,2017-04-08T16:50:00Z,24.4560,-81.8770,45.4,5.7,50.0,6.7,'1111122,1111122,1111122' 
NDBC,ioos:station:NOAA.NDBC:SANF1:1,2017-04-08T17:50:00Z,24.4560,-81.8770,45.4,4.1,20.0,6.2,'1111122,1111122,1111122' 
NDBC,ioos:station:NOAA.NDBC:SANF1:1,2017-04-08T18:50:00Z,24.4560,-81.8770,45.4,4.6,10.0,6.2,'1111122,1111122,1111122' 
NDBC,ioos:station:NOAA.NDBC:SANF1:1,2017-04-08T20:50:00Z,24.4560,-81.8770,45.4,6.7,360.0,8.2,'1111122,1111122,1111122' 
NDBC,ioos:station:NOAA.NDBC:SANF1:1,2017-04-08T21:50:00Z,24.4560,-81.8770,45.4,7.7,350.0,9.3,'1111122,1111122,1111122' 
NDBC,ioos:station:NOAA.NDBC:SANF1:1,2017-04-08T22:50:00Z,24.4560,-81.8770,45.4,8.2,360.0,9.8,'1111122,1111122,1111122' 
NDBC,ioos:station:NOAA.NDBC:SANF1:1,2017-04-09T00:50:00Z,24.4560,-81.8770,45.4,6.2,360.0,8.8,'1111122,1111122,1111122' 
NDBC,ioos:station:NOAA.NDBC:SANF1:1,2017-04-09T01:50:00Z,24.4560,-81.8770,45.4,5.7,360.0,7.7,'1111122,1111122,1111122' 
NDBC,ioos:station:NOAA.NDBC:SANF1:1,2017-04-09T02:50:00Z,24.4560,-81.8770,45.4,6.7,360.0,8.8,'1111122,1111122,1111122' 
NDBC,ioos:station:NOAA.NDBC:SANF1:1,2017-04-09T04:50:00Z,24.4560,-81.8770,45.4,6.7,20.0,9.3,'1111122,1111122,1111122' 
NDBC,ioos:station:NOAA.NDBC:SANF1:1,2017-04-09T05:50:00Z,24.4560,-81.8770,45.4,6.2,10.0,8.2,'1111122,1111122,1111122' 
NDBC,ioos:station:NOAA.NDBC:SANF1:1,2017-04-09T06:50:00Z,24.4560,-81.8770,45.4,6.2,20.0,7.7,'1111122,1111122,1111122' 
NDBC,ioos:station:NOAA.NDBC:SANF1:1,2017-04-09T07:50:00Z,24.4560,-81.8770,45.4,5.1,20.0,7.2,'1111122,1111122,1111122' 
NDBC,ioos:station:NOAA.NDBC:SANF1:1,2017-04-09T08:50:00Z,24.4560,-81.8770,45.4,5.7,30.0,6.7,'1111122,1111122,1111122' 
NDBC,ioos:station:NOAA.NDBC:SANF1:1,2017-04-09T09:50:00Z,24.4560,-81.8770,45.4,4.6,60.0,5.7,'1111122,1111122,1111122' 
NDBC,ioos:station:NOAA.NDBC:SANF1:1,2017-04-09T10:50:00Z,24.4560,-81.8770,45.4,3.1,30.0,4.1,'1111122,1111122,1111122' 
NDBC,ioos:station:NOAA.NDBC:SANF1:1,2017-04-09T11:50:00Z,24.4560,-81.8770,45.4,2.6,50.0,4.1,'1111122,1111122,1111122' 
NDBC,ioos:station:NOAA.NDBC:SANF1:1,2017-04-09T13:50:00Z,24.4560,-81.8770,45.4,3.6,50.0,4.6,'1111122,1111122,1111122' 
NDBC,ioos:station:NOAA.NDBC:SANF1:1,2017-04-09T15:50:00Z,24.4560,-81.8770,45.4,5.1,70.0,6.2,'1111122,1111122,1111122' 
NDBC,ioos:station:NOAA.NDBC:SANF1:1,2017-04-09T16:50:00Z,24.4560,-81.8770,45.4,5.7,80.0,6.7,'1111122,1111122,1111122' 
NDBC,ioos:station:NOAA.NDBC:SANF1:1,2017-04-09T17:50:00Z,24.4560,-81.8770,45.4,5.7,90.0,6.7,'1111122,1111122,1111122' 
NDBC,ioos:station:NOAA.NDBC:SANF1:1,2017-04-09T18:50:00Z,24.4560,-81.8770,45.4,7.2,100.0,7.7,'1111122,1111122,1111122' 
NDBC,ioos:station:NOAA.NDBC:SANF1:1,2017-04-09T20:50:00Z,24.4560,-81.8770,45.4,7.7,90.0,9.3,'1111122,1111122,1111122' 
NDBC,ioos:station:NOAA.NDBC:SANF1:1,2017-04-09T21:50:00Z,24.4560,-81.8770,45.4,9.8,110.0,11.3,'1111122,1111122,1111122' 
NDBC,ioos:station:NOAA.NDBC:SANF1:1,2017-04-09T22:50:00Z,24.4560,-81.8770,45.4,10.3,100.0,12.4,'1111122,1111122,1111122' 
NDBC,ioos:station:NOAA.NDBC:SANF1:1,2017-04-09T23:50:00Z,24.4560,-81.8770,45.4,9.8,100.0,11.3,'1111122,1111122,1111122' 
NDBC,ioos:station:NOAA.NDBC:SANF1:1,2017-04-10T00:50:00Z,24.4560,-81.8770,45.4,10.3,100.0,12.4,'1111122,1111122,1111122' 
NDBC,ioos:station:NOAA.NDBC:SANF1:1,2017-04-10T02:50:00Z,24.4560,-81.8770,45.4,11.3,100.0,12.9,'1111122,1111122,1111122' 
NDBC,ioos:station:NOAA.NDBC:SANF1:1,2017-04-10T03:50:00Z,24.4560,-81.8770,45.4,11.3,90.0,13.4,'1111122,1111122,1111122' 
NDBC,ioos:station:NOAA.NDBC:SANF1:1,2017-04-10T05:50:00Z,24.4560,-81.8770,45.4,11.3,100.0,13.4,'1111122,1111122,1111122' 
NDBC,ioos:station:NOAA.NDBC:SANF1:1,2017-04-10T06:50:00Z,24.4560,-81.8770,45.4,12.4,100.0,13.9,'1111122,1111122,1111122' 
NDBC,ioos:station:NOAA.NDBC:SANF1:1,2017-04-10T08:50:00Z,24.4560,-81.8770,45.4,8.8,110.0,10.3,'1111122,1111122,1111122' 
NDBC,ioos:station:NOAA.NDBC:SANF1:1,2017-04-10T09:50:00Z,24.4560,-81.8770,45.4,8.2,110.0,9.8,'1111122,1111122,1111122' 
NDBC,ioos:station:NOAA.NDBC:SANF1:1,2017-04-10T10:50:00Z,24.4560,-81.8770,45.4,6.7,90.0,8.2,'1111122,1111122,1111122' 
NDBC,ioos:station:NOAA.NDBC:SANF1:1,2017-04-10T11:50:00Z,24.4560,-81.8770,45.4,8.2,70.0,9.3,'1111122,1111122,1111122' 
NDBC,ioos:station:NOAA.NDBC:SANF1:1,2017-04-10T13:50:00Z,24.4560,-81.8770,45.4,6.7,90.0,7.7,'1111122,1111122,1111122' 
NDBC,ioos:station:NOAA.NDBC:SANF1:1,2017-04-10T14:50:00Z,24.4560,-81.8770,45.4,6.7,80.0,8.8,'1111122,1111122,1111122' 
NDBC,ioos:station:NOAA.NDBC:SANF1:1,2017-04-10T16:50:00Z,24.4560,-81.8770,45.4,6.7,90.0,8.2,'1111122,1111122,1111122' 
NDBC,ioos:station:NOAA.NDBC:SANF1:1,2017-04-10T18:50:00Z,24.4560,-81.8770,45.4,7.7,80.0,9.3,'1111122,1111122,1111122' 
NDBC,ioos:station:NOAA.NDBC:SANF1:1,2017-04-10T20:50:00Z,24.4560,-81.8770,45.4,8.8,100.0,10.3,'1111122,1111122,1111122' 
NDBC,ioos:station:NOAA.NDBC:SANF1:1,2017-04-10T22:50:00Z,24.4560,-81.8770,45.4,11.8,100.0,13.4,'1111122,1111122,1111122' 
NDBC,ioos:station:NOAA.NDBC:SANF1:1,2017-04-10T23:50:00Z,24.4560,-81.8770,45.4,11.3,100.0,13.4,'1111122,1111122,1111122' 
NDBC,ioos:station:NOAA.NDBC:SANF1:1,2017-04-11T00:50:00Z,24.4560,-81.8770,45.4,11.8,100.0,13.4,'1111122,1111122,1111122' 
NDBC,ioos:station:NOAA.NDBC:SANF1:1,2017-04-11T03:50:00Z,24.4560,-81.8770,45.4,9.8,70.0,11.3,'1111122,1111122,1111122' 
NDBC,ioos:station:NOAA.NDBC:SANF1:1,2017-04-11T04:50:00Z,24.4560,-81.8770,45.4,11.8,80.0,13.4,'1111122,1111122,1111122' 
NDBC,ioos:station:NOAA.NDBC:SANF1:1,2017-04-11T05:50:00Z,24.4560,-81.8770,45.4,11.3,80.0,14.4,'1111122,1111122,1111122' 
NDBC,ioos:station:NOAA.NDBC:SANF1:1,2017-04-11T06:50:00Z,24.4560,-81.8770,45.4,11.8,70.0,13.4,'1111122,1111122,1111122' 
NDBC,ioos:station:NOAA.NDBC:SANF1:1,2017-04-11T07:50:00Z,24.4560,-81.8770,45.4,11.3,80.0,13.4,'1111122,1111122,1111122' 
NDBC,ioos:station:NOAA.NDBC:SANF1:1,2017-04-11T08:50:00Z,24.4560,-81.8770,45.4,9.3,70.0,10.8,'1111122,1111122,1111122' 
NDBC,ioos:station:NOAA.NDBC:SANF1:1,2017-04-11T09:50:00Z,24.4560,-81.8770,45.4,9.3,70.0,10.3,'1111122,1111122,1111122' 
NDBC,ioos:station:NOAA.NDBC:SANF1:1,2017-04-11T10:50:00Z,24.4560,-81.8770,45.4,9.8,60.0,10.8,'1111122,1111122,1111122' 
NDBC,ioos:station:NOAA.NDBC:SANF1:1,2017-04-11T11:50:00Z,24.4560,-81.8770,45.4,10.8,60.0,12.4,'1111122,1111122,1111122' 
NDBC,ioos:station:NOAA.NDBC:SANF1:1,2017-04-11T12:50:00Z,24.4560,-81.8770,45.4,11.3,60.0,12.9,'1111122,1111122,1111122' 
NDBC,ioos:station:NOAA.NDBC:SANF1:1,2017-04-11T13:50:00Z,24.4560,-81.8770,45.4,10.3,70.0,11.3,'1111122,1111122,1111122' 
NDBC,ioos:station:NOAA.NDBC:SANF1:1,2017-04-11T15:50:00Z,24.4560,-81.8770,45.4,10.3,90.0,12.4,'1111122,1111122,1111122' 
NDBC,ioos:station:NOAA.NDBC:SANF1:1,2017-04-11T16:50:00Z,24.4560,-81.8770,45.4,9.8,80.0,11.3,'1111122,1111122,1111122' 
NDBC,ioos:station:NOAA.NDBC:SANF1:1,2017-04-11T18:50:00Z,24.4560,-81.8770,45.4,9.3,80.0,9.8,'1111122,1111122,1111122' 
NDBC,ioos:station:NOAA.NDBC:SANF1:1,2017-04-11T19:50:00Z,24.4560,-81.8770,45.4,8.8,90.0,9.3,'1111122,1111122,1111122' 
NDBC,ioos:station:NOAA.NDBC:SANF1:1,2017-04-11T21:50:00Z,24.4560,-81.8770,45.4,9.8,100.0,10.8,'1111122,1111122,1111122' 
NDBC,ioos:station:NOAA.NDBC:SANF1:1,2017-04-11T22:50:00Z,24.4560,-81.8770,45.4,9.3,100.0,10.8,'1111122,1111122,1111122' 
NDBC,ioos:station:NOAA.NDBC:SANF1:1,2017-04-11T23:50:00Z,24.4560,-81.8770,45.4,9.8,100.0,11.3,'1111122,1111122,1111122' 
NDBC,ioos:station:NOAA.NDBC:SANF1:1,2017-04-12T00:50:00Z,24.4560,-81.8770,45.4,10.3,100.0,11.8,'1111122,1111122,1111122' 
NDBC,ioos:station:NOAA.NDBC:SANF1:1,2017-04-12T02:50:00Z,24.4560,-81.8770,45.4,11.3,100.0,12.9,'1111122,1111122,1111122' 
NDBC,ioos:station:NOAA.NDBC:SANF1:1,2017-04-12T03:50:00Z,24.4560,-81.8770,45.4,11.3,80.0,13.4,'1111122,1111122,1111122' 
NDBC,ioos:station:NOAA.NDBC:SANF1:1,2017-04-12T04:50:00Z,24.4560,-81.8770,45.4,11.8,80.0,13.9,'1111122,1111122,1111122' 
NDBC,ioos:station:NOAA.NDBC:SANF1:1,2017-04-12T06:50:00Z,24.4560,-81.8770,45.4,9.8,80.0,11.3,'1111122,1111122,1111122' 
NDBC,ioos:station:NOAA.NDBC:SANF1:1,2017-04-12T07:50:00Z,24.4560,-81.8770,45.4,7.7,80.0,8.8,'1111122,1111122,1111122' 
NDBC,ioos:station:NOAA.NDBC:SANF1:1,2017-04-12T08:50:00Z,24.4560,-81.8770,45.4,8.2,70.0,9.3,'1111122,1111122,1111122' 
NDBC,ioos:station:NOAA.NDBC:SANF1:1,2017-04-12T09:50:00Z,24.4560,-81.8770,45.4,7.2,60.0,8.8,'1111122,1111122,1111122' 
NDBC,ioos:station:NOAA.NDBC:SANF1:1,2017-04-12T10:50:00Z,24.4560,-81.8770,45.4,9.3,70.0,10.3,'1111122,1111122,1111122' 
NDBC,ioos:station:NOAA.NDBC:SANF1:1,2017-04-12T11:50:00Z,24.4560,-81.8770,45.4,8.8,60.0,10.3,'1111122,1111122,1111122' 
NDBC,ioos:station:NOAA.NDBC:SANF1:1,2017-04-12T12:50:00Z,24.4560,-81.8770,45.4,9.3,50.0,10.3,'1111122,1111122,1111122' 
NDBC,ioos:station:NOAA.NDBC:SANF1:1,2017-04-12T13:50:00Z,24.4560,-81.8770,45.4,9.3,40.0,10.3,'1111122,1111122,1111122' 
NDBC,ioos:station:NOAA.NDBC:SANF1:1,2017-04-12T14:50:00Z,24.4560,-81.8770,45.4,9.8,40.0,11.3,'1111122,1111122,1111122' 
NDBC,ioos:station:NOAA.NDBC:SANF1:1,2017-04-12T15:50:00Z,24.4560,-81.8770,45.4,10.3,40.0,11.8,'1111122,1111122,1111122' 
NDBC,ioos:station:NOAA.NDBC:SANF1:1,2017-04-12T16:50:00Z,24.4560,-81.8770,45.4,9.3,70.0,11.3,'1111122,1111122,1111122' 
NDBC,ioos:station:NOAA.NDBC:SANF1:1,2017-04-12T17:50:00Z,24.4560,-81.8770,45.4,9.3,30.0,10.8,'1111122,1111122,1111122' 
NDBC,ioos:station:NOAA.NDBC:SANF1:1,2017-04-12T18:50:00Z,24.4560,-81.8770,45.4,7.2,130.0,9.8,'1111122,1111122,1111122' 
NDBC,ioos:station:NOAA.NDBC:SANF1:1,2017-04-12T20:50:00Z,24.4560,-81.8770,45.4,7.2,40.0,8.2,'1111122,1111122,1111122' 